Lapse_Rate
5.6 5.5 5.5 5.4 5.5 5.5 5.6 5.5 5.4 5.5 5.3 5.2 5.2 5.3 5.4 5.4 5.4 5.4 5.3 5.1 5.2 5.2 5.2 5.4 5.4 5.3 5.0 5.2 5.6 6.0 6.2 6.3 6.4 6.3 6.1 5.8 5.6 5.3 5.3 5.2 4.9 4.8 4.5
5.2 5.2 5.2 5.4 5.4 5.5 5.5 5.4 5.4 5.5 5.4 5.4 5.3 5.1 5.2 5.3 5.6 5.5 5.5 5.4 5.3 5.3 5.4 5.2 5.2 5.2 5.1 5.0 5.0 5.3 5.7 5.8 6.2 6.3 6.2 5.9 5.7 5.4 5.2 5.0 4.9 4.7 4.7
5.0 5.1 5.1 5.1 5.2 5.2 5.2 5.2 5.3 5.5 5.4 5.3 5.1 5.2 5.1 5.1 5.2 5.3 5.4 5.5 5.5 5.5 5.4 5.5 5.3 5.1 5.0 4.9 5.0 5.0 5.3 5.2 5.5 5.7 6.1 6.1 5.7 5.5 5.3 5.1 5.1 5.0 4.9
4.8 4.7 5.0 5.0 5.1 5.0 4.9 5.0 5.0 5.1 5.0 5.1 5.0 5.1 5.2 5.1 4.9 5.0 5.0 5.2 5.5 5.8 5.8 5.7 5.6 5.5 5.4 5.1 5.1 5.1 5.2 5.2 5.3 5.4 5.5 5.7 5.8 5.7 5.6 5.3 5.2 5.1 5.1
4.8 4.8 4.8 4.8 5.0 4.9 4.8 4.8 4.7 4.7 4.9 4.8 4.7 4.7 4.8 4.9 5.0 4.8 4.8 4.9 5.2 5.6 5.9 5.8 5.7 5.7 5.6 5.5 5.3 5.0 5.1 4.8 5.0 5.2 5.3 5.3 5.3 5.4 5.5 5.6 5.7 5.6 5.5
4.9 4.9 5.0 4.9 4.9 4.9 4.8 4.7 4.6 4.6 4.6 4.6 4.7 4.7 4.7 4.8 4.9 4.9 4.9 4.9 5.1 5.3 5.8 6.2 5.9 5.6 5.6 5.6 5.6 5.2 4.9 5.1 5.2 5.3 5.4 5.5 5.7 5.7 5.6 5.5 5.5 5.4 5.4
5.0 5.0 4.9 4.9 4.8 4.8 4.8 4.7 4.6 4.6 4.5 4.5 4.7 4.6 4.6 4.7 4.8 5.0 5.0 5.1 5.3 5.3 5.7 6.2 6.3 6.1 5.8 5.6 5.6 5.7 5.4 5.2 5.4 5.6 5.6 5.6 5.7 5.7 5.7 5.7 5.6 5.4 5.2
5.1 5.0 4.9 4.9 4.8 4.8 4.8 4.7 4.7 4.6 4.6 4.6 4.6 4.6 4.6 4.6 4.6 4.7 4.9 5.1 5.3 5.5 5.8 6.0 6.7 6.4 6.2 6.1 5.9 5.8 5.7 5.6 5.7 5.7 5.7 5.7 5.8 5.9 6.0 5.8 5.5 5.3 5.1
5.0 5.0 4.9 4.8 4.8 4.7 4.7 4.7 4.6 4.5 4.5 4.6 4.5 4.5 4.5 4.5 4.6 4.5 4.5 4.7 5.0 5.5 6.0 6.2 6.3 6.8 6.5 6.3 6.1 6.0 6.0 6.0 5.9 5.9 5.8 5.8 5.8 5.9 5.9 5.9 5.6 5.4 5.2
5.0 5.0 4.9 4.8 4.7 4.7 4.7 4.6 4.6 4.6 4.5 4.4 4.5 4.4 4.3 4.3 4.4 4.6 4.5 4.4 4.8 4.9 5.7 6.3 6.4 6.6 6.8 6.6 6.5 6.1 5.9 6.1 6.0 6.0 6.0 5.9 5.9 5.9 5.9 5.8 5.6 5.6 5.4
5.0 4.9 4.9 4.8 4.7 4.7 4.7 4.6 4.5 4.5 4.5 4.4 4.3 4.3 4.1 4.1 4.0 4.1 4.1 4.1 4.5 4.6 5.4 6.1 6.4 6.7 7.1 6.7 6.6 6.5 6.2 6.1 6.2 6.1 6.1 6.1 6.1 6.0 5.9 5.8 5.7 5.6 5.5
5.1 5.0 4.9 4.8 4.7 4.7 4.6 4.5 4.5 4.4 4.4 4.4 4.3 4.1 4.1 3.9 3.9 3.7 3.6 3.6 3.9 4.1 4.8 6.0 6.4 6.7 7.0 7.0 6.7 6.6 6.3 6.1 6.2 6.1 6.0 6.0 6.0 5.9 5.8 5.6 5.5 5.4 5.3
5.2 5.1 4.9 4.8 4.7 4.6 4.5 4.5 4.5 4.4 4.4 4.3 4.2 4.2 4.1 4.0 3.9 3.6 3.5 3.4 3.4 3.7 3.9 5.2 6.1 6.6 6.9 7.0 6.9 6.6 6.5 6.2 6.0 6.0 5.9 5.9 5.9 5.9 5.8 5.8 5.8 5.7 5.6
5.3 5.3 5.2 4.9 4.8 4.7 4.6 4.5 4.4 4.4 4.3 4.3 4.2 4.1 4.1 3.9 3.8 3.7 3.6 3.5 3.3 3.2 3.2 4.3 5.4 6.1 6.9 7.1 7.0 6.7 6.5 6.4 6.1 6.0 5.9 5.9 5.8 5.8 5.8 5.7 5.8 5.8 5.7
5.3 5.3 5.1 5.1 4.9 4.8 4.7 4.6 4.6 4.5 4.6 4.5 4.3 4.1 4.2 4.1 4.0 3.9 3.7 3.3 3.1 3.0 2.9 3.2 4.5 5.4 6.0 6.3 7.0 6.6 6.2 6.1 6.1 6.0 5.9 5.9 5.9 5.8 5.8 5.7 5.7 5.7 5.7
5.4 5.2 5.0 5.0 4.9 4.9 4.9 4.8 4.8 4.7 4.7 4.6 4.5 4.5 4.3 4.2 4.0 3.8 3.6 3.2 2.9 2.8 2.7 2.8 3.4 4.4 5.1 5.5 6.0 6.2 5.9 5.6 5.8 5.9 5.9 5.9 5.9 5.7 5.7 5.8 5.7 5.7 5.8
5.6 5.4 5.2 4.9 4.8 4.8 4.8 4.8 4.6 4.8 4.9 4.8 4.7 4.6 4.3 4.2 4.0 3.8 3.5 3.1 2.9 2.7 2.5 2.4 2.4 3.1 3.9 4.4 4.9 5.3 5.4 5.2 5.5 5.5 5.6 5.7 5.7 5.8 5.9 6.0 6.0 6.0 5.9
5.8 5.7 5.5 5.3 5.1 4.9 4.7 4.7 4.9 4.8 4.5 4.3 4.4 4.5 4.2 4.1 4.1 4.0 3.6 3.2 2.9 2.6 2.5 2.3 2.1 2.2 2.9 3.5 3.8 4.2 4.7 5.1 5.2 5.4 5.4 5.5 5.6 5.7 5.8 5.9 6.1 6.2 6.1
6.0 5.8 5.7 5.7 5.5 5.3 5.0 4.9 5.0 5.1 5.0 4.7 4.5 4.6 4.5 4.6 4.5 4.2 4.1 3.6 3.1 2.8 2.7 2.3 2.1 2.0 2.2 3.0 3.3 3.6 4.2 4.9 5.1 5.2 5.4 5.5 5.6 5.6 5.7 5.8 5.8 6.0 6.1
6.0 6.0 5.8 5.8 5.7 5.6 5.3 5.2 5.3 5.5 5.4 5.2 5.2 5.1 5.0 4.9 4.8 4.5 4.3 3.9 3.5 3.1 2.8 2.4 2.2 2.1 2.0 2.2 3.2 3.6 4.1 4.6 5.0 5.1 5.3 5.5 5.6 5.7 5.7 5.7 5.9 5.9 6.0
6.0 6.1 6.0 5.8 5.8 5.7 5.5 5.5 5.5 5.6 5.6 5.5 5.6 5.6 5.6 5.4 5.2 5.1 4.7 4.3 3.6 3.2 2.9 2.5 2.3 2.1 2.1 2.2 2.6 3.6 3.9 4.3 4.8 5.1 5.3 5.6 5.6 5.5 5.6 5.6 5.8 6.0 6.1
6.1 6.1 6.1 5.9 5.8 5.7 5.7 5.6 5.6 5.7 5.6 5.6 5.7 5.7 5.5 5.5 5.4 5.2 5.0 4.5 3.8 3.3 3.0 2.7 2.4 2.2 2.2 2.3 2.6 2.8 3.9 4.4 4.7 5.1 5.4 5.5 5.6 5.7 5.7 5.7 5.7 5.7 5.9
6.0 6.0 6.1 6.0 5.9 5.8 5.8 5.7 5.6 5.7 5.6 5.5 5.6 5.7 5.6 5.3 5.3 5.2 5.0 4.6 4.1 3.5 3.2 2.8 2.6 2.4 2.4 2.4 2.5 2.6 3.0 4.3 4.9 5.3 5.5 5.8 5.9 5.9 5.9 5.9 5.8 5.8 5.9
5.9 6.0 6.0 6.0 5.9 5.9 5.8 5.8 5.6 5.7 5.6 5.5 5.5 5.7 5.6 5.5 5.3 5.3 5.2 4.7 4.2 3.7 3.3 3.1 2.8 2.6 2.4 2.5 2.5 2.7 2.9 3.4 4.4 5.3 5.7 5.9 6.0 6.1 6.2 6.2 6.1 6.0 5.8
5.9 5.9 5.9 6.0 6.0 5.9 5.8 5.8 5.8 5.6 5.6 5.5 5.4 5.5 5.6 5.6 5.5 5.4 5.2 4.9 4.4 3.9 3.6 3.1 3.0 2.8 2.6 2.5 2.6 2.6 2.8 2.8 3.4 4.3 5.4 6.1 6.2 6.2 6.2 6.3 6.2 6.2 6.1
6.0 5.9 5.9 5.9 5.9 5.9 5.8 5.7 5.8 5.6 5.5 5.4 5.3 5.3 5.5 5.6 5.5 5.4 5.4 4.9 4.4 3.9 3.7 3.2 3.1 3.0 2.8 2.7 2.6 2.6 2.6 2.8 2.9 3.3 4.0 5.1 6.1 6.2 6.3 6.4 6.3 6.2 6.2
Wind_Speed
3 4 5 5 6 5 5 6 6 8 8 8 8 8 9 9 9 8 8 8 9 10 10 9 11 10 8 5 4 4 4 3 3 3 1 3 5 8 8 8 8 8 9
4 4 5 5 5 6 6 7 9 8 10 8 8 8 9 9 9 7 8 7 8 9 10 10 11 9 9 6 4 7 5 3 2 5 2 3 3 7 6 5 6 8 7
4 4 5 5 6 7 7 7 8 7 8 9 7 8 9 9 8 7 6 7 7 7 8 9 9 11 11 9 7 7 5 4 3 2 3 2 2 5 5 5 6 6 7
4 5 5 4 5 6 7 7 7 8 7 8 7 8 8 9 8 7 4 6 7 6 7 7 9 10 9 7 7 7 8 6 3 3 1 2 2 3 4 5 5 6 6
4 5 6 5 5 5 6 6 6 6 6 7 8 9 9 8 7 1 4 7 7 8 8 7 7 11 13 10 7 7 7 5 5 5 4 3 3 4 4 4 4 6 5
6 6 5 5 4 4 5 6 5 5 6 6 6 7 9 6 13 15 9 6 7 6 7 9 9 9 10 8 13 11 9 6 4 4 3 3 2 2 1 2 4 5 4
7 7 6 5 4 4 4 4 5 4 5 6 6 6 8 8 13 16 12 5 6 7 7 7 8 7 10 1 7 9 9 10 9 4 4 4 1 3 2 1 1 2 3
8 7 6 5 5 4 3 3 4 3 3 5 5 6 6 6 14 14 12 5 6 7 6 7 7 9 8 1 3 6 5 4 6 4 5 4 3 4 4 3 2 2 4
9 8 7 6 5 4 4 4 4 3 4 4 5 7 6 7 12 13 11 5 6 7 6 6 8 8 12 8 2 6 6 4 6 9 7 6 7 9 1 2 2 3 3
9 8 6 6 6 6 5 5 3 3 5 5 7 6 9 8 11 11 11 4 7 6 6 6 9 10 12 11 3 4 4 1 5 6 6 6 6 6 5 2 1 3 3
7 6 6 6 6 6 5 3 5 6 5 6 7 7 7 7 9 12 12 6 4 5 5 6 6 12 11 11 10 6 5 1 5 4 4 5 5 5 3 2 2 3 4
7 7 6 6 5 4 5 5 5 5 6 6 6 6 4 5 8 9 11 11 10 5 6 6 6 11 11 11 8 10 9 5 3 4 3 3 3 3 3 2 3 5 8
8 8 7 5 5 5 5 5 5 4 4 5 5 5 6 5 5 9 9 10 9 7 5 8 11 11 10 8 11 10 7 4 4 4 4 4 4 5 6 4 5 7 8
9 8 6 5 5 5 3 3 4 5 5 5 5 5 5 5 5 4 3 4 6 6 6 5 7 8 8 7 7 7 4 4 5 4 4 5 4 4 4 3 4 5 5
8 7 7 5 5 4 4 4 4 5 6 5 5 5 5 5 5 8 6 5 5 6 7 4 5 6 6 6 5 6 5 5 5 5 5 5 5 5 4 4 4 5 7
8 7 6 5 4 4 4 5 7 10 10 10 12 7 4 6 11 9 7 8 7 9 3 4 5 6 6 6 6 6 5 7 6 6 6 5 5 5 6 5 5 5 6
9 7 5 6 4 4 3 4 5 3 6 5 5 7 7 7 7 7 7 7 7 6 4 4 4 5 5 5 6 6 6 6 6 5 5 6 6 6 7 6 6 6 6
9 12 5 5 4 4 4 4 3 4 4 4 4 6 6 7 6 7 8 4 4 4 4 4 4 4 5 5 5 6 6 6 6 6 6 6 5 5 6 6 6 7 7
9 6 5 4 4 5 4 4 4 3 3 4 3 2 5 6 5 7 7 3 4 4 4 4 4 5 5 5 5 5 6 5 6 6 6 5 6 6 6 6 6 9 10
9 12 9 5 4 5 4 4 3 3 3 3 2 1 2 3 3 3 3 3 4 4 4 4 4 5 4 4 4 5 5 5 5 5 6 6 6 6 6 7 7 7 7
7 7 11 6 5 5 4 4 3 3 3 2 1 1 3 1 1 2 3 3 4 4 4 4 5 4 4 4 4 5 5 5 5 6 6 6 7 7 7 6 7 7 7
7 7 6 6 5 5 5 4 3 3 2 1 1 0 3 1 1 2 2 3 4 3 3 4 4 4 4 4 4 4 5 5 6 6 6 6 7 6 6 6 7 7 7
8 8 7 6 6 6 5 4 4 3 2 2 1 1 1 1 2 2 3 3 3 4 5 5 4 4 5 5 5 3 4 5 6 7 7 7 6 5 6 6 6 7 7
9 9 8 7 5 5 5 5 4 5 4 3 2 2 2 1 2 2 2 3 3 4 5 6 6 7 7 6 6 6 6 8 10 10 9 6 5 5 5 5 5 7 6
9 9 8 7 7 6 5 5 5 5 4 4 3 2 2 2 1 1 2 3 2 3 5 7 7 9 9 9 9 11 12 12 11 11 7 5 5 5 4 4 6 5 6
9 9 8 6 6 7 6 6 6 5 5 4 3 3 3 2 1 0 1 2 3 3 5 5 6 8 9 8 10 12 12 12 11 11 7 5 4 4 4 5 8 5 7
Wind_Direction
273 293 298 308 311 313 310 325 328 320 326 324 330 336 343 341 349 348 350 350 355 353 358 354 354 351 345 342 316 306 300 289 321 1 297 336 356 7 16 24 30 38 47
285 288 296 303 311 308 317 325 328 325 322 322 325 328 330 335 334 338 347 347 349 351 351 350 352 354 356 343 334 319 311 314 313 325 321 344 5 356 358 20 21 35 37
279 289 304 314 313 314 316 321 321 322 325 327 338 333 327 328 327 328 342 345 343 349 348 347 343 348 7 358 356 358 351 320 298 297 316 336 344 12 352 9 22 13 21
275 284 288 301 303 306 312 312 316 321 323 329 336 336 333 326 322 311 339 346 347 349 343 342 341 335 351 357 5 7 344 348 298 286 316 346 342 5 23 3 2 3 348
241 266 280 294 292 296 303 311 322 323 323 325 333 336 336 335 338 305 1 356 345 343 340 339 336 327 344 3 356 1 359 1 360 14 22 349 5 6 8 341 343 343 337
220 243 261 276 286 294 305 315 324 331 326 334 337 335 336 336 333 352 9 350 344 341 335 332 335 338 335 344 355 3 3 19 42 29 358 352 5 318 357 341 342 351 332
222 237 243 253 269 281 296 305 320 333 324 329 333 336 335 331 338 338 359 354 335 336 331 330 331 334 344 356 1 12 18 19 14 6 348 345 241 225 198 168 189 243 273
222 232 240 245 257 274 285 298 306 311 325 324 323 330 327 328 341 338 355 354 341 337 333 332 325 327 334 180 349 5 6 15 357 357 347 303 256 239 218 184 233 286 273
229 237 244 246 257 264 281 292 303 306 313 313 311 319 323 323 336 337 336 340 339 337 338 335 338 331 329 2 334 348 343 8 1 3 356 349 353 3 151 200 280 329 322
228 235 246 256 264 270 274 288 285 291 302 313 311 312 316 321 327 332 334 334 333 331 334 335 345 337 349 352 25 339 313 324 352 10 6 10 15 13 28 16 261 289 292
220 229 244 260 265 266 279 270 288 295 296 302 305 309 312 320 322 330 337 338 321 322 335 335 338 341 352 355 354 332 340 51 343 331 335 358 4 9 12 336 280 258 260
208 217 234 252 255 263 261 278 281 287 292 300 307 312 317 324 322 325 339 336 339 320 334 323 329 349 356 359 355 351 360 356 339 337 336 340 347 347 330 286 261 260 251
204 218 228 241 243 249 257 271 284 284 287 300 307 311 317 321 321 327 329 327 332 334 327 327 342 353 2 4 4 4 3 356 344 335 338 335 326 312 309 292 258 243 253
206 215 221 235 246 245 247 257 270 279 282 283 292 302 307 310 320 324 307 311 321 327 336 335 351 355 14 9 5 6 8 359 342 329 324 322 316 317 314 312 305 317 303
209 213 212 217 238 256 252 255 254 261 245 267 278 283 295 307 297 310 339 331 328 330 342 355 2 2 4 1 6 3 2 2 356 346 330 329 322 323 318 315 294 298 300
211 218 217 212 220 232 255 278 258 262 279 275 280 284 296 293 313 343 344 338 336 353 341 9 5 358 349 345 355 -0 2 359 355 340 336 334 330 328 322 320 311 304 299
211 215 222 221 214 225 236 257 288 296 297 304 319 329 330 341 347 5 352 353 4 12 2 8 4 350 331 339 349 356 354 348 339 342 335 337 335 331 332 331 330 321 314
205 214 212 220 220 220 231 249 257 276 305 311 328 348 8 9 18 20 10 11 4 12 3 3 351 333 332 345 348 347 343 351 348 345 340 341 338 333 332 332 330 325 320
201 205 202 210 221 223 225 236 248 262 275 289 317 17 13 15 32 26 30 30 2 356 353 356 345 335 342 347 339 336 339 340 343 341 341 339 338 334 330 328 319 320 323
196 205 198 201 213 221 225 232 242 248 261 274 302 339 336 357 12 7 15 6 -0 349 346 348 343 339 343 337 337 336 336 346 352 357 349 337 333 330 328 328 327 326 327
182 192 199 191 205 216 226 224 222 236 246 252 251 289 2 27 342 2 2 3 359 345 343 341 333 336 326 332 338 338 343 346 353 348 339 328 327 327 329 324 323 324 324
179 180 191 194 202 212 219 214 200 213 210 188 166 6 341 41 345 8 10 352 351 336 332 329 319 321 326 323 329 340 339 337 336 336 327 322 323 322 325 329 332 334 335
176 176 183 194 198 205 198 182 180 188 183 163 167 247 266 287 299 324 333 339 345 337 333 337 326 325 332 327 321 326 325 324 316 321 318 317 321 325 327 331 337 341 346
175 177 180 189 184 187 180 183 183 182 174 170 179 192 203 255 280 299 317 341 349 336 334 338 330 326 329 335 334 333 320 314 320 319 316 311 317 328 333 336 342 346 350
176 178 181 183 182 182 179 178 183 188 185 174 168 196 197 183 196 297 336 358 350 339 344 350 348 341 339 347 348 334 331 338 344 341 329 315 323 338 350 356 357 1 11
175 177 179 174 176 169 178 187 189 179 173 166 171 192 195 181 170 53 26 354 341 340 347 342 341 347 352 346 349 357 353 353 355 356 347 336 346 359 7 17 19 21 25